Preview of NWS' New Version of Forecast
This preview is not operational and should not be used for support decisions.

Regional Weather Roundup (RWR)

Issued by National Weather Service (NWS)

                            
000
ASPQ40 PGUM 240210
RWRPQ 
WEATHER ROUNDUP FOR THE MARIANAS AND MICRONESIA
NATIONAL WEATHER SERVICE TIYAN GU
1200 PM CHST MON JUN 24 2019

GUZ001>004-240300-
MARIANA ISLANDS-
  
CITY           SKY/WX    TMP DP  RH WIND       PRES   REMARKS
GUAM AIRPORT   MOSUNNY   88  73  62 E14       29.92S HX  96           
ANDERSEN AFB   PTSUNNY   88  77  70 E13       29.92F HX 100           
ROTA AIRPORT   LGT RAIN  81  75  83 E21       29.91F                  
TINIAN AP      MOSUNNY   91  75  59 E16       29.90F HX 102           
SAIPAN AP      MOSUNNY   88  77  70 E17       29.92S HX 100           

$$

PMZ161-240300-
REPUBLIC OF PALAU-
  
CITY           SKY/WX    TMP DP  RH WIND       PRES   REMARKS
KOROR AP       CLOUDY    84  77  79 SW6       29.85F HX  94           
KOROR WSO      NOT AVBL                                               

$$

PMZ171>174-240300-
FEDERATED STATES OF MICRONESIA-
  
CITY           SKY/WX    TMP DP  RH WIND       PRES   REMARKS
YAP AIRPORT    LGT RAIN  81  77  89 N8        29.86F                  
CHUUK AP       LGT RAIN  84  81  89 N8        29.83F HX  98           
POHNPEI AP     CLOUDY    84  77  79 E9        29.84F HX  94           
POHNPEI WSO    CLOUDY    84  79  84 E3G15     29.86F HX  96           
KOSRAE AP      CLOUDY    84  79  84 NE14      29.81F HX  96           

$$

PMZ181-240300-
REPUBLIC OF THE MARSHALL ISLANDS-
  
CITY           SKY/WX    TMP DP  RH WIND       PRES   REMARKS
KWAJALEIN AP   PTSUNNY   81  81 100 E13       29.85S HX  91           
MAJURO AP      NOT AVBL                                               
MAJURO WSO     LGT RAIN  79  75  89 SE9       29.83F                  

$$